{"data":{"norad_id":85047,"intl_designator":"","name":"UNKNOWN","alt_names":[],"object_type":"UNKNOWN","status":"UNKNOWN","operator":null,"country":null,"launch_date":null,"launch_site_code":null,"launch_vehicle":null,"mission":null,"orbit_class":"UNKNOWN","rcs_meters":null,"size_class":null,"mass_kg":null,"dimensions":null,"purposes":[],"wikipedia_slug":null,"has_3d_model":false,"image_url":null,"decayed_at":null,"tle_current":{"epoch":"2026-05-21T11:14:36.083616Z","epoch_age_seconds":374195,"freshness":"STALE","line1":"1 85047U          26141.46847319  .00008379  00000+0  12932-1 0  9994","line2":"2 85047 102.1667 145.6778 0129667  34.3239 326.6180 13.48272511598150","mean_motion":13.48272511,"eccentricity":0.0129667,"inclination_deg":102.1667,"raan_deg":145.6778,"arg_perigee_deg":34.3239,"mean_anomaly_deg":326.618,"bstar":0.012932,"rev_number":59815,"period_min":106.8033345078,"perigee_km":981.93155403835,"apogee_km":1175.3106445303,"semimajor_km":7456.7580992843,"source":"CELESTRAK","updated_at":"2026-05-25T13:38:11.429725Z"}}}